Regional Weather Roundup
Issued by NWS State College, PA

Home | Current Version | Previous Version | Text Only | Print | Product List | Glossary On
Versions: 1 2 3 4 5 6 7 8 9 10 11 12 13 14 15 16 17 18 19 20 21 22 23 24 25 26 27 28 29 30 31 32 33 34 35 36 37 38 39 40 41 42 43 44 45 46 47 48 49 50
000
ASUS41 KCTP 010503
RWRCTP

REGIONAL WEATHER ROUNDUP
NATIONAL WEATHER SERVICE STATE COLLEGE PA
100 AM EDT FRI AUG 01 2014

Note: "fair" indicates few or no clouds below 12,000 feet with no
significant weather and/or obstructions to visibility.

* = STATION THAT DOES NOT REPORT PRECIPITATION /E.G. RAIN...SNOW...ETC/
    THUNDER OR FOG.

PAZ002>004-007>009-013>016-020>023-029>032-010600-
WESTERN PENNSYLVANIA

CITY           SKY/WX    TMP DP  RH WIND       PRES   REMARKS
ERIE           PTCLDY    65  52  62 S12       30.08S
MEADVILLE      CLEAR     63  53  70 CALM      30.13R
FRANKLIN*      CLEAR     59  54  82 CALM      30.15S
NEW CASTLE     FAIR      59  59 100 CALM      30.14R FOG
BEAVER COUNTY  NOT AVBL
BUTLER*        CLEAR     61  57  88 CALM      30.15S
PITTSBURGH INT PTCLDY    62  60  93 CALM      30.13S
PITTSBURGH     CLEAR     64  60  87 SE7       30.13S
INDIANA*       CLOUDY    61  59  94 CALM      30.19S FOG
LATROBE        CLEAR     61  61 100 CALM      30.15S FOG
WASHINGTON CO* CLOUDY    59  57  94 CALM      30.15R VSB 1/2
$$

PAZ004>006-010>012-017>019-024>028-033>037-041-042-045-046-049>053-010600-
CENTRAL PENNSYLVANIA

CITY           SKY/WX    TMP DP  RH WIND       PRES   REMARKS
BRADFORD       CLEAR     52  50  93 SE3       30.16S
DUBOIS         CLEAR     63  59  87 S3        30.15S
CLEARFIELD     CLEAR     59  58  96 CALM      30.17R FOG
JOHNSTOWN      CLEAR     61  55  81 S3        30.19R
ALTOONA        CLEAR     60  58  92 CALM      30.18R
STATE COLLEGE  MOCLDY    61  60  96 CALM      30.16R FOG
WILLIAMSPORT   MOCLDY    66  63  90 CALM      30.13R
SELINSGROVE    PTCLDY    59  58  96 CALM      30.15R FOG
FT INDIANTOWN  PTCLDY    64  64 100 CALM      30.15R
CAPITAL CITY   PTCLDY    65  62  90 SW3       30.14R
HARRISBURG     PTCLDY    70  62  76 CALM      30.13R
YORK           MOCLDY    64  61  90 CALM      30.14R
$$

PAZ038>040-043-044-047-048-054-055-060>062-067>071-010600-
EASTERN PENNSYLVANIA

CITY           SKY/WX    TMP DP  RH WIND       PRES   REMARKS
SCRANTON       CLEAR     66  58  75 E5        30.15R
MOUNT POCONO   CLOUDY    62  57  83 CALM      30.20R
ALLENTOWN      MOCLDY    65  62  90 N3        30.15R
QUAKERTOWN*    PTCLDY    64  63  94 CALM      30.17R
READING        PTCLDY    69  64  84 CALM      30.13S
LANCASTER      PTCLDY    68  63  84 E5        30.14R
COATESVILLE    CLEAR     68  66  94 CALM      30.17R
POTTSTOWN      PTCLDY    67  63  87 E3        30.16S
BLUE BELL      PTCLDY    66  64  94 CALM      30.15R
DOYLESTOWN     PTCLDY    65  63  93 CALM      30.15S
WILLOW GROVE   NOT AVBL
NORTH PHILA    PTCLDY    74  64  71 CALM      30.16S
PHILADELPHIA   MOCLDY    73  67  81 S5        30.15S
$$


USA.gov is the U.S. government's official web portal to all federal, state and local government web resources and services.